GPM-CORE

Last updated on July 6, 2021, 3:24 p.m. UTC

1 39574U 14009C   21186.85653372  .00004531  00000-0  68602-4 0  9998
2 39574  65.0057 287.5023 0010686 280.6592  79.3351 15.56088375417685
UTC
Height (km)
Latitude
Longitude
Inclination
Orbital Period
UTC large
Height (km)
Speed (km/s)
/
Latitude / Longitude
Inclination (degrees)
Orbital Period (minutes)
Azimuth
Elevation
Range (km)
Doppler Factor
iOS Compass Heading
iOS Angle